x

New Dungeness - 17 Nm Ne Of Port Angeles, Wa (46088) Wave Buoy

7:50 - Mon 21st Aug 2017 All times are PDT. -7 hours from GMT.

  • Sig Wave height 0.7ft
  • Average Period 4s
  • Wind
    4mph, 7mph gusts
  • Sea Temp 52°f
  • Aire Temp 52°f
  • Sea Pressure 1020.2mb
  • New Dungeness - 17 Nm Ne Of Port Angeles, Wa
  • New Dungeness - 17 Nm Ne Of Port Angeles, Wa

More Historic Weather Station data

Upgrade to MSW Pro to gain access to the past 30 days of data for over 8000 Wavebouys and Weather Stations around the globe.

Join

Comparision Forecast

View Surf forecast
   
lun 08/21 7:50 0.7ft  -  4s 4 7 mph 1020.2mb 52f 52f
7:20 0.3ft  -  3s 4 4 mph 1020.2mb 52f 52f
6:20 0.7ft  -  3s 4 4 mph 1019.6mb 52f 52f
5:50 0.7ft  -  3s 7 7 mph 1019.5mb 52f 51f
5:20 0.7ft  -  3s 9 9 mph 1019.3mb 52f 52f
4:50 0.7ft  -  3s 11 13 mph 1019.1mb 52f 52f
4:20 0.7ft  -  3s 11 13 mph 1019.2mb 52f 53f
3:50 0.7ft  -  3s 11 13 mph 1019.2mb 52f 53f
3:20 1ft 3s 3s 11 13 mph 1019.1mb 52f 53f
2:50 1ft 3s 3s 11 11 mph 1019.2mb 52f 53f
2:20 1.3ft 3s 3s 11 11 mph 1019.1mb 52f 54f
1:50 1.6ft 3s 3s 11 13 mph 1019.1mb 52f 54f
1:20 1.6ft 3s 3s 13 13 mph 1019.1mb 52f 55f
12:50 1.6ft 3s 3s 13 13 mph 1019.1mb 52f 53f
12:20 2ft 4s 3s 13 16 mph 1019mb 52f 54f
dom 08/20 11:50 1.6ft 4s 4s 16 16 mph 1018.9mb 52f 54f
11:20 2ft 4s 4s 13 16 mph 1018.9mb 53f 54f
10:50 2ft 4s 4s 16 18 mph 1018.9mb 53f 54f
10:20 2ft 4s 4s 16 18 mph 1018.8mb 53f 55f
9:50 2ft 4s 4s 18 22 mph 1018.7mb 53f 55f
9:20 1.6ft 4s 4s 18 22 mph 1018.7mb 53f 55f
8:50 1.6ft 4s 4s 18 20 mph 1018.6mb 53f 54f
8:20 1.6ft 3s 4s 18 22 mph 1018.4mb 53f 55f
7:50 1.3ft 3s 3s 16 18 mph 1018.3mb 53f 55f
7:20 1.3ft 3s 3s 16 18 mph 1018.3mb 53f 56f
6:50 1.3ft 3s 3s 13 16 mph 1018.2mb 53f 59f
6:20 1.3ft 3s 3s 11 13 mph 1018.3mb 53f 58f
5:50 1.6ft 3s 3s 13 16 mph 1018.2mb 53f 60f
5:20 1.3ft 3s 3s 16 18 mph 1018.1mb 53f 61f
4:20 1ft 2s 3s 11 13 mph 1018.5mb 53f 59f
3:50 0.7ft  -  3s 18 22 mph 1018.4mb 53f 61f
3:20 0.7ft  -  3s 18 18 mph 1018.9mb 52f 54f
2:50 1ft 6s 3s 16 16 mph 1019.2mb 53f 54f
2:20 1ft 3s 3s 9 11 mph 1019.8mb 53f 55f
1:50 2.5ft 7s 4s 2 4 mph 1019.8mb 53f 58f
1:20 2ft 7s 4s  -  2 mph 1019.9mb 53f 56f
12:50 2ft 8s 4s 7 7 mph 1020mb 53f 57f
12:20 2.5ft 8s 5s 2 2 mph 1020.2mb 52f 55f
11:50 2ft 8s 5s 4 7 mph 1020.3mb 52f 55f
11:20 1.6ft 9s 5s 4 4 mph 1020.5mb 52f 55f
10:50 1.3ft 9s 5s 4 7 mph 1020.4mb 53f 56f
10:20 1.3ft 9s 5s 7 7 mph 1020.6mb 52f 55f
9:50 1.3ft 5s 5s 4 4 mph 1020.8mb 53f 54f
9:20 1ft 5s 4s 2 4 mph 1020.8mb 52f 55f
8:50 1ft 5s 4s 4 4 mph 1020.7mb 52f 54f
8:20 1ft 5s 4s 9 11 mph 1020.6mb 52f 55f
7:50 1ft 5s 4s 9 11 mph 1020.3mb 52f 54f
7:20 1.3ft 5s 4s 13 16 mph 1020.1mb 52f 55f
6:50 1.3ft 5s 4s 11 13 mph 1019.9mb 52f 55f
6:20 1.3ft 4s 4s 13 16 mph 1019.9mb 52f 55f
5:50 1.6ft 4s 4s 13 18 mph 1019.9mb 52f 55f
5:20 1.6ft 4s 3s 18 22 mph 1019.6mb 51f 55f
4:50 1.6ft 3s 3s 18 20 mph 1019.6mb 51f 55f
4:20 1.6ft 3s 3s 18 20 mph 1019.7mb 52f 55f
3:50 1.6ft 3s 3s 18 22 mph 1019.8mb 52f 55f
3:20 1.6ft 3s 3s 18 22 mph 1019.9mb 52f 55f
2:50 1.6ft 3s 3s 18 20 mph 1020mb 52f 55f
2:20 1.6ft 3s 3s 18 22 mph 1019.9mb 52f 55f
1:50 1.6ft 3s 3s 16 18 mph 1020.1mb 52f 55f
1:20 1.6ft 3s 3s 18 25 mph 1020.2mb 52f 55f
12:50 2ft 3s 3s 18 20 mph 1020.3mb 52f 55f
12:20 2.5ft 4s 3s 18 22 mph 1020.2mb 52f 55f
sáb 08/19 11:50 2.5ft 4s 4s 18 22 mph 1020mb 52f 55f
11:20 2.5ft 4s 4s 18 22 mph 1020.1mb 52f 55f
10:50 2.5ft 4s 4s 20 22 mph 1020.1mb 52f 55f
10:20 2.5ft 4s 4s 20 25 mph 1020.3mb 52f 55f
9:50 2.5ft 4s 4s 22 27 mph 1020.3mb 52f 55f
9:20 2.5ft 4s 4s 20 25 mph 1020.4mb 52f 55f
8:50 2.5ft 4s 4s 18 20 mph 1020.5mb 53f 55f
8:20 2.5ft 4s 4s 22 27 mph 1020mb 53f 55f
7:50 2ft 4s 3s 22 27 mph 1019.9mb 54f 56f
7:20 1.6ft 3s 3s 20 22 mph 1020.1mb 53f 55f
6:50 1.6ft 3s 3s 20 25 mph 1020.1mb 53f 55f
6:20 1.3ft 3s 3s 18 20 mph 1020.3mb 53f 55f
5:50 1ft 3s 3s 18 20 mph 1020.5mb 53f 55f
5:20 1.3ft 2s 3s 13 16 mph 1020.9mb 53f 56f
4:50 1ft 6s 4s 16 18 mph 1020.8mb 54f 56f
4:20 1ft 6s 5s 13 16 mph 1021.1mb 53f 56f
3:50 0.7ft  -  5s 11 13 mph 1021.5mb 53f 55f
3:20 0.7ft  -  4s 9 11 mph 1021.7mb 53f 56f
2:50 0.7ft  -  4s 7 7 mph 1021.8mb 53f 55f
2:20 0.7ft  -  4s 7 7 mph 1021.8mb 53f 55f
1:50 1ft 6s 4s 7 7 mph 1022.1mb 53f 55f
1:20 1.6ft 7s 4s 4 7 mph 1022.2mb 53f 55f
12:50 2.5ft 8s 5s 4 7 mph 1022.3mb 54f 55f
12:20 2.5ft 8s 5s 7 7 mph 1022.4mb 54f 55f
11:50 2.5ft 7s 6s 7 7 mph 1022.5mb 53f 55f
11:20 2ft 8s 6s 4 7 mph 1022.5mb 53f 55f
10:50 2ft 8s 6s 2 2 mph 1022.7mb 52f 55f
10:20 1.3ft 8s 5s 2 4 mph 1022.6mb 52f 55f
9:50 1ft 8s 4s 7 9 mph 1022.2mb 53f 54f
9:20 1.3ft 5s 4s 7 9 mph 1022.1mb 52f 55f
8:50 1.3ft 5s 4s 7 9 mph 1022.2mb 52f 54f
8:20 1.3ft 5s 4s 7 7 mph 1022.1mb 52f 55f
7:50 1ft 5s 4s 9 11 mph 1021.8mb 52f 55f
7:20 1ft 5s 4s 11 13 mph 1021.6mb 52f 55f
6:50 1ft 5s 4s 11 13 mph 1021.5mb 52f 55f
6:20 1.3ft 5s 4s 13 18 mph 1021.1mb 52f 55f
5:50 1.3ft 5s 4s 16 20 mph 1020.9mb 52f 55f
5:20 1.6ft 4s 4s 16 22 mph 1020.7mb 52f 55f
4:50 1.6ft 4s 4s 16 20 mph 1020.5mb 52f 55f
4:20 1.6ft 4s 4s 18 22 mph 1020.4mb 52f 55f
3:50 2ft 4s 4s 18 20 mph 1020.1mb 52f 55f
3:20 2.5ft 4s 3s 18 22 mph 1020mb 52f 55f
2:50 2ft 4s 3s 18 22 mph 1020mb 52f 55f
2:20 2.5ft 4s 4s 18 25 mph 1020.1mb 52f 55f
1:50 2.5ft 4s 3s 20 22 mph 1020mb 52f 55f
1:20 2.5ft 4s 3s 20 25 mph 1020mb 52f 55f
12:50 2.5ft 4s 4s 20 22 mph 1020.1mb 52f 55f
12:20 3ft 4s 4s 22 25 mph 1019.9mb 52f 55f
vie 08/18 11:50 3.5ft 4s 4s 22 27 mph 1019.9mb 52f 55f
11:20 3.5ft 4s 4s 22 27 mph 1019.7mb 52f 56f
10:50 3ft 4s 4s 25 29 mph 1019.5mb 52f 56f
10:20 2.5ft 4s 4s 25 31 mph 1019.5mb 52f 56f
9:50 2.5ft 4s 4s 20 25 mph 1019.4mb 52f 58f
9:20 2.5ft 4s 4s 20 22 mph 1019.3mb 53f 58f
8:50 2.5ft 4s 4s 16 18 mph 1019.2mb 53f 58f
8:20 2.5ft 4s 4s 22 25 mph 1018.8mb 53f 59f
7:50 2ft 4s 3s 20 25 mph 1018.7mb 53f 60f
7:20 1.6ft 3s 3s 22 25 mph 1018.5mb 53f 60f
6:50 2ft 4s 3s 18 20 mph 1018.8mb 53f 59f
6:20 2ft 4s 3s 13 16 mph 1018.9mb 53f 57f
5:50 2ft 4s 3s 18 22 mph 1019.1mb 53f 57f
5:20 2ft 3s 3s 20 25 mph 1019mb 53f 58f
4:50 2.5ft 3s 3s 22 25 mph 1019.1mb 53f 59f
4:20 2.5ft 3s 3s 25 27 mph 1019.1mb 53f 60f
3:50 2.5ft 3s 3s 22 27 mph 1019.2mb 53f 60f
3:20 2.5ft 3s 3s 25 29 mph 1018.9mb 52f 61f
2:50 1.6ft 3s 3s 20 22 mph 1019.4mb 53f 60f
2:20 2ft 3s 3s 16 20 mph 1019.8mb 53f 60f
1:50 2ft 3s 3s 11 13 mph 1020.1mb 53f 60f
1:20 1.6ft 3s 3s 13 16 mph 1019.9mb 53f 59f
12:50 2ft 3s 3s 20 29 mph 1019.8mb 53f 61f
12:20 2.5ft 4s 4s 20 27 mph 1019.8mb 53f 61f
11:50 2.5ft 4s 4s 22 27 mph 1019.9mb 53f 60f
11:20 2.5ft 9s 5s 11 16 mph 1020.2mb 53f 59f
10:50 2.5ft 8s 5s 11 13 mph 1020.3mb 53f 56f
10:20 2.5ft 5s 5s 20 22 mph 1019.8mb 53f 57f
9:50 3ft 8s 5s 18 20 mph 1019.9mb 53f 55f
9:20 2.5ft 5s 4s 16 18 mph 1019.7mb 52f 56f
8:50 2.5ft 6s 4s 13 16 mph 1020.1mb 52f 55f
8:20 3ft 5s 5s 16 20 mph 1020mb 52f 55f
7:50 2.5ft 6s 4s 16 18 mph 1020.1mb 52f 55f
7:20 2.5ft 6s 5s 20 22 mph 1019.7mb 52f 56f
6:50 2.5ft 6s 5s 20 25 mph 1019.4mb 52f 55f
6:20 2.5ft 6s 5s 20 25 mph 1019.3mb 52f 55f
5:50 2.5ft 6s 5s 18 22 mph 1019.4mb 52f 55f
5:20 2.5ft 6s 5s 18 22 mph 1019.2mb 52f 56f
4:50 3ft 5s 4s 20 25 mph 1019mb 52f 55f
4:20 3ft 5s 4s 20 22 mph 1018.9mb 52f 55f
3:50 2.5ft 5s 4s 20 25 mph 1018.8mb 52f 55f
3:20 2.5ft 4s 4s 18 22 mph 1018.9mb 52f 56f
2:50 2.5ft 5s 4s 20 25 mph 1018.7mb 53f 55f
2:20 2.5ft 4s 4s 20 22 mph 1018.9mb 53f 55f
1:50 2ft 4s 3s 20 25 mph 1019mb 53f 55f
1:20 2ft 4s 3s 22 29 mph 1019.1mb 53f 55f
12:50 2.5ft 4s 4s 20 25 mph 1019.2mb 52f 55f
12:20 2.5ft 5s 4s 25 27 mph 1019.1mb 53f 55f
jue 08/17 11:50 3ft 4s 4s 25 31 mph 1019.4mb 53f 56f
11:20 3ft 4s 4s 25 29 mph 1019.4mb 53f 56f
10:50 2.5ft 4s 4s 25 31 mph 1019.4mb 53f 56f
10:20 2.5ft 4s 3s 22 27 mph 1019.5mb 52f 56f
9:50 2.5ft 4s 4s 20 22 mph 1019.7mb 53f 56f
9:20 2.5ft 4s 4s 20 22 mph 1019.6mb 52f 56f
8:50 2.5ft 5s 4s 22 25 mph 1019.2mb 53f 57f
8:20 2.5ft 4s 4s 20 25 mph 1019.4mb 53f 57f
7:50 2.5ft 4s 4s 20 25 mph 1019.2mb 53f 57f
7:20 2ft 4s 3s 18 22 mph 1019.3mb 53f 57f
6:50 1.6ft 4s 3s 16 18 mph 1019.4mb 53f 57f
6:20 1.6ft 3s 3s 16 18 mph 1019.6mb 53f 57f
5:50 1.3ft 3s 3s 18 20 mph 1019.7mb 53f 56f
5:20 1.3ft 3s 3s 16 16 mph 1020mb 52f 56f
4:50 1.3ft 3s 3s 16 18 mph 1020.3mb 53f 56f
4:20 1ft 3s 3s 13 16 mph 1020.5mb 53f 56f